When you browse on this site, cookies collect data to enhance your experience and personalize the content and advertising you see.
Visit our Privacy Policy to learn more. By continuing to use the site, you agree to this use of cookies and data.
  • In Schweiz
  • Länderverzeichnis
  • Für 7 Tage
  • Wassertemperatur
  • Satellitenkarten
  • Wetterkarte
  • Widgets
  • user-avatar
    Anmelden

    Stündliche Wetter Zuevec

    Heute, 19 Januar, Samstag

    Zeit Temperatur Niederschläge Wind Luftdruck Luftfeuchtigkeit
    00:00 -8°C° 0 mm 3 m/S 744 mmHg 92%
    01:00 -10°C° 0 mm 3 m/S 744 mmHg 92%
    02:00 -12°C° 0 mm 3 m/S 745 mmHg 93%
    03:00 -12°C° 0 mm 3 m/S 745 mmHg 93%
    04:00 -12°C° 0 mm 3 m/S 746 mmHg 93%
    05:00 -12°C° 0 mm 3 m/S 746 mmHg 93%
    06:00 -12°C° 0 mm 3 m/S 747 mmHg 93%
    07:00 -12°C° 0 mm 3 m/S 747 mmHg 93%
    08:00 -13°C° 0 mm 3 m/S 747 mmHg 93%
    09:00 -12°C° 0 mm 3 m/S 748 mmHg 92%
    10:00 -12°C° 0 mm 3 m/S 748 mmHg 92%
    11:00 -12°C° 0 mm 3 m/S 748 mmHg 92%
    12:00 -10°C° 0 mm 3 m/S 748 mmHg 92%
    13:00 -9°C° 0 mm 3 m/S 748 mmHg 92%
    14:00 -8°C° 0 mm 3 m/S 748 mmHg 92%
    15:00 -8°C° 0 mm 3 m/S 748 mmHg 93%
    16:00 -8°C° 0 mm 3 m/S 749 mmHg 93%
    17:00 -8°C° 0 mm 3 m/S 749 mmHg 93%
    18:00 -8°C° 0 mm 3 m/S 748 mmHg 93%
    19:00 -9°C° 0 mm 4 m/S 748 mmHg 92%
    20:00 -9°C° 0 mm 4 m/S 747 mmHg 92%
    21:00 -8°C° 0.4 mm 5 m/S 746 mmHg 91%
    22:00 -7°C° 0.4 mm 5 m/S 745 mmHg 91%
    23:00 -6°C° 0.4 mm 6 m/S 745 mmHg 91%

    Morgen, 20 Januar, Sonntag

    Zeit Temperatur Niederschläge Wind Luftdruck Luftfeuchtigkeit
    00:00 -5°C° 0.3 mm 6 m/S 744 mmHg 88%
    01:00 -5°C° 0.3 mm 5 m/S 743 mmHg 86%
    02:00 -5°C° 0.3 mm 5 m/S 743 mmHg 84%
    03:00 -5°C° 0 mm 6 m/S 743 mmHg 82%
    04:00 -6°C° 0 mm 6 m/S 743 mmHg 81%
    05:00 -8°C° 0 mm 7 m/S 743 mmHg 79%
    06:00 -8°C° 0 mm 7 m/S 743 mmHg 79%
    07:00 -9°C° 0 mm 6 m/S 744 mmHg 79%
    08:00 -10°C° 0 mm 6 m/S 744 mmHg 78%
    09:00 -10°C° 0 mm 6 m/S 745 mmHg 80%
    10:00 -10°C° 0 mm 6 m/S 746 mmHg 82%
    11:00 -10°C° 0 mm 6 m/S 746 mmHg 84%
    12:00 -10°C° 0.1 mm 5 m/S 747 mmHg 84%
    13:00 -10°C° 0.1 mm 5 m/S 747 mmHg 83%
    14:00 -10°C° 0.1 mm 5 m/S 747 mmHg 82%
    15:00 -10°C° 0.1 mm 5 m/S 748 mmHg 84%
    16:00 -10°C° 0.1 mm 4 m/S 748 mmHg 85%
    17:00 -10°C° 0.1 mm 4 m/S 749 mmHg 86%
    18:00 -9°C° 0.1 mm 3 m/S 749 mmHg 88%
    19:00 -9°C° 0.1 mm 3 m/S 749 mmHg 89%
    20:00 -9°C° 0.1 mm 3 m/S 750 mmHg 91%
    21:00 -10°C° 0.1 mm 3 m/S 750 mmHg 91%
    22:00 -10°C° 0.1 mm 3 m/S 750 mmHg 92%
    23:00 -12°C° 0.1 mm 3 m/S 750 mmHg 93%

    übermorgen, 21 Januar, Montag

    Zeit Temperatur Niederschläge Wind Luftdruck Luftfeuchtigkeit
    00:00 -12°C° 0 mm 3 m/S 751 mmHg 93%
    01:00 -13°C° 0 mm 3 m/S 751 mmHg 94%
    02:00 -13°C° 0 mm 3 m/S 751 mmHg 94%
    03:00 -13°C° 0.1 mm 3 m/S 751 mmHg 94%
    04:00 -13°C° 0.1 mm 3 m/S 751 mmHg 93%
    05:00 -13°C° 0.1 mm 3 m/S 751 mmHg 93%
    06:00 -13°C° 0 mm 3 m/S 751 mmHg 94%
    07:00 -13°C° 0 mm 2 m/S 752 mmHg 95%
    08:00 -14°C° 0 mm 2 m/S 752 mmHg 95%
    09:00 -14°C° 0 mm 2 m/S 752 mmHg 95%
    10:00 -13°C° 0 mm 2 m/S 753 mmHg 94%
    11:00 -13°C° 0 mm 2 m/S 753 mmHg 93%
    12:00 -12°C° 0 mm 2 m/S 753 mmHg 93%
    13:00 -12°C° 0 mm 2 m/S 754 mmHg 92%
    14:00 -9°C° 0 mm 1 m/S 754 mmHg 91%
    15:00 -10°C° 0 mm 1 m/S 754 mmHg 93%
    16:00 -11°C° 0 mm 1 m/S 754 mmHg 95%
    17:00 -12°C° 0 mm 1 m/S 754 mmHg 96%
    18:00 -12°C° 0 mm 1 m/S 754 mmHg 97%
    19:00 -13°C° 0 mm 1 m/S 754 mmHg 97%
    20:00 -13°C° 0 mm 0 m/S 754 mmHg 97%
    21:00 -14°C° 0 mm 0 m/S 755 mmHg 98%
    22:00 -14°C° 0 mm 0 m/S 755 mmHg 98%
    23:00 -15°C° 0 mm 0 m/S 755 mmHg 99%

    22 Januar, Dienstag

    Zeit Temperatur Niederschläge Wind Luftdruck Luftfeuchtigkeit
    00:00 -15°C° 0 mm 0 m/S 755 mmHg 99%
    01:00 -15°C° 0 mm 0 m/S 755 mmHg 99%
    02:00 -15°C° 0 mm 0 m/S 755 mmHg 98%
    03:00 -15°C° 0 mm 0 m/S 755 mmHg 98%
    04:00 -15°C° 0 mm 0 m/S 755 mmHg 98%
    05:00 -16°C° 0 mm 1 m/S 754 mmHg 98%
    06:00 -16°C° 0 mm 1 m/S 754 mmHg 98%
    07:00 -17°C° 0 mm 1 m/S 754 mmHg 98%
    08:00 -17°C° 0 mm 1 m/S 754 mmHg 98%
    09:00 -17°C° 0 mm 1 m/S 754 mmHg 97%
    10:00 -16°C° 0 mm 0 m/S 755 mmHg 96%
    11:00 -15°C° 0 mm 0 m/S 755 mmHg 95%
    12:00 -15°C° 0 mm 0 m/S 755 mmHg 94%
    13:00 -14°C° 0 mm 0 m/S 755 mmHg 93%
    14:00 -14°C° 0 mm 0 m/S 754 mmHg 92%
    15:00 -15°C° 0 mm 0 m/S 754 mmHg 93%
    16:00 -16°C° 0 mm 0 m/S 754 mmHg 94%
    17:00 -17°C° 0 mm 0 m/S 754 mmHg 96%
    18:00 -18°C° 0 mm 0 m/S 754 mmHg 95%
    19:00 -18°C° 0 mm 0 m/S 754 mmHg 95%
    20:00 -18°C° 0 mm 0 m/S 754 mmHg 95%
    21:00 -18°C° 0 mm 1 m/S 754 mmHg 95%
    22:00 -17°C° 0 mm 1 m/S 754 mmHg 95%
    23:00 -17°C° 0 mm 1 m/S 754 mmHg 95%

    23 Januar, Mittwoch

    Zeit Temperatur Niederschläge Wind Luftdruck Luftfeuchtigkeit
    00:00 -17°C° 0 mm 1 m/S 754 mmHg 96%
    01:00 -17°C° 0 mm 1 m/S 754 mmHg 96%
    02:00 -17°C° 0 mm 1 m/S 754 mmHg 96%
    03:00 -17°C° 0 mm 1 m/S 754 mmHg 95%
    04:00 -18°C° 0 mm 1 m/S 754 mmHg 95%
    05:00 -18°C° 0 mm 1 m/S 754 mmHg 94%
    06:00 -20°C° 0 mm 2 m/S 754 mmHg 94%
    07:00 -20°C° 0 mm 2 m/S 754 mmHg 93%
    08:00 -20°C° 0 mm 2 m/S 754 mmHg 92%
    09:00 -19°C° 0 mm 2 m/S 754 mmHg 91%
    10:00 -18°C° 0 mm 2 m/S 754 mmHg 89%
    11:00 -18°C° 0 mm 3 m/S 754 mmHg 88%
    12:00 -16°C° 0 mm 2 m/S 754 mmHg 88%
    13:00 -16°C° 0 mm 2 m/S 754 mmHg 89%
    14:00 -15°C° 0 mm 2 m/S 754 mmHg 90%
    15:00 -16°C° 0 mm 2 m/S 754 mmHg 92%
    16:00 -16°C° 0 mm 2 m/S 753 mmHg 94%
    17:00 -17°C° 0 mm 2 m/S 753 mmHg 96%
    18:00 -17°C° 0 mm 2 m/S 753 mmHg 96%
    19:00 -17°C° 0 mm 2 m/S 753 mmHg 97%
    20:00 -16°C° 0 mm 2 m/S 753 mmHg 98%
    21:00 -15°C° 0.1 mm 2 m/S 753 mmHg 97%
    22:00 -12°C° 0.1 mm 1 m/S 754 mmHg 97%
    23:00 -11°C° 0.1 mm 1 m/S 754 mmHg 97%

    24 Januar, Donnerstag

    Zeit Temperatur Niederschläge Wind Luftdruck Luftfeuchtigkeit
    00:00 -10°C° 0.1 mm 1 m/S 754 mmHg 97%
    01:00 -10°C° 0.1 mm 1 m/S 754 mmHg 97%
    02:00 -10°C° 0.1 mm 0 m/S 754 mmHg 98%
    03:00 -10°C° 0 mm 0 m/S 754 mmHg 98%
    04:00 -11°C° 0 mm 0 m/S 754 mmHg 98%
    05:00 -11°C° 0 mm 1 m/S 754 mmHg 97%
    06:00 -12°C° 0 mm 1 m/S 754 mmHg 98%
    07:00 -12°C° 0 mm 1 m/S 754 mmHg 98%
    08:00 -13°C° 0 mm 1 m/S 754 mmHg 98%
    09:00 -12°C° 0 mm 1 m/S 755 mmHg 97%
    10:00 -11°C° 0 mm 1 m/S 755 mmHg 96%
    11:00 -13°C° 0 mm 2 m/S 756 mmHg 95%
    12:00 -13°C° 0 mm 2 m/S 756 mmHg 94%
    13:00 -12°C° 0 mm 2 m/S 756 mmHg 93%
    14:00 -12°C° 0 mm 2 m/S 756 mmHg 91%
    15:00 -13°C° 0 mm 2 m/S 757 mmHg 93%
    16:00 -14°C° 0 mm 2 m/S 757 mmHg 94%
    17:00 -13°C° 0 mm 1 m/S 758 mmHg 96%
    18:00 -16°C° 0 mm 2 m/S 758 mmHg 96%
    19:00 -16°C° 0 mm 2 m/S 758 mmHg 97%
    20:00 -17°C° 0 mm 2 m/S 759 mmHg 97%
    21:00 -18°C° 0 mm 2 m/S 759 mmHg 97%
    22:00 -18°C° 0 mm 2 m/S 760 mmHg 97%
    23:00 -19°C° 0 mm 2 m/S 760 mmHg 97%
    Mehr zeigen